Satellite: NOAA-10
Catalog number: 16969
Epoch time:      12039.91351093
Element set:    0810
Inclination:      098.5951 deg
RA of node:       071.1816 deg
Eccentricity:    0.0011472
Arg of perigee:   252.4542 deg
Mean anomaly:     107.5378 deg
Mean motion:   14.27525570 rev/day
Decay rate:       -5.0e-07 rev/day^2
Epoch rev:           32142
Checksum:              285

Satellite: NOAA-11
Catalog number: 19531
Epoch time:      12039.88150175
Element set:    0809
Inclination:      098.7386 deg
RA of node:       127.7395 deg
Eccentricity:    0.0010479
Arg of perigee:   231.4171 deg
Mean anomaly:     128.6078 deg
Mean motion:   14.14950922 rev/day
Decay rate:      -1.31e-06 rev/day^2
Epoch rev:           20622
Checksum:              300

Satellite: NOAA-12
Catalog number: 21263
Epoch time:      12039.96588726
Element set:    0314
Inclination:      098.7381 deg
RA of node:       062.1783 deg
Eccentricity:    0.0013100
Arg of perigee:   214.1128 deg
Mean anomaly:     145.9212 deg
Mean motion:   14.25476432 rev/day
Decay rate:        3.3e-07 rev/day^2
Epoch rev:           07814
Checksum:              277

Satellite: MET-3/5
Catalog number: 21655
Epoch time:      12039.92726928
Element set:    0333
Inclination:      082.5519 deg
RA of node:       243.4981 deg
Eccentricity:    0.0012490
Arg of perigee:   287.7876 deg
Mean anomaly:     072.1899 deg
Mean motion:   13.17033694 rev/day
Decay rate:        5.1e-07 rev/day^2
Epoch rev:           98488
Checksum:              345

Satellite: MET-2/21
Catalog number: 22782
Epoch time:      12040.36909801
Element set:     333
Inclination:      082.5507 deg
RA of node:       134.7225 deg
Eccentricity:    0.0023321
Arg of perigee:   150.6479 deg
Mean anomaly:     209.5998 deg
Mean motion:   13.83677117 rev/day
Decay rate:        4.0e-08 rev/day^2
Epoch rev:           93135
Checksum:              295

Satellite: OKEAN-4
Catalog number: 23317
Epoch time:      12039.94895332
Element set:    0838
Inclination:      082.5418 deg
RA of node:       151.9982 deg
Eccentricity:    0.0023079
Arg of perigee:   060.2460 deg
Mean anomaly:     300.1047 deg
Mean motion:   14.83574154 rev/day
Decay rate:       7.74e-06 rev/day^2
Epoch rev:           93564
Checksum:              311

Satellite: NOAA-14
Catalog number: 23455
Epoch time:      12039.96909293
Element set:    0801
Inclination:      098.8337 deg
RA of node:       125.0677 deg
Eccentricity:    0.0009080
Arg of perigee:   332.4367 deg
Mean anomaly:     027.6323 deg
Mean motion:   14.13875330 rev/day
Decay rate:        3.4e-07 rev/day^2
Epoch rev:           88253
Checksum:              308

Satellite: NOAA-15
Catalog number: 25338
Epoch time:      12039.58476756
Element set:    0134
Inclination:      098.6789 deg
RA of node:       027.7903 deg
Eccentricity:    0.0011394
Arg of perigee:   122.6752 deg
Mean anomaly:     237.5527 deg
Mean motion:   14.25027177 rev/day
Decay rate:       -1.1e-07 rev/day^2
Epoch rev:           71439
Checksum:              321

Satellite: RESURS
Catalog number: 25394
Epoch time:      12040.91255318
Element set:      10
Inclination:      098.3106 deg
RA of node:       035.9623 deg
Eccentricity:    0.0000498
Arg of perigee:   272.6512 deg
Mean anomaly:     087.4616 deg
Mean motion:   14.24272763 rev/day
Decay rate:        3.2e-07 rev/day^2
Epoch rev:           70614
Checksum:              269

Satellite: FENGYUN1
Catalog number: 25730
Epoch time:      12039.93893644
Element set:    0551
Inclination:      098.8366 deg
RA of node:       001.2522 deg
Eccentricity:    0.0021276
Arg of perigee:   014.0020 deg
Mean anomaly:     346.1734 deg
Mean motion:   14.09219036 rev/day
Decay rate:      1.241e-05 rev/day^2
Epoch rev:           65640
Checksum:              267

Satellite: OKEAN-0
Catalog number: 25860
Epoch time:      12040.90552462
Element set:     542
Inclination:      097.9178 deg
RA of node:       006.3086 deg
Eccentricity:    0.0000859
Arg of perigee:   034.1073 deg
Mean anomaly:     326.0187 deg
Mean motion:   14.74079501 rev/day
Decay rate:       3.70e-06 rev/day^2
Epoch rev:           67567
Checksum:              292

Satellite: NOAA-16
Catalog number: 26536
Epoch time:      12039.57038148
Element set:    0618
Inclination:      099.1131 deg
RA of node:       079.5888 deg
Eccentricity:    0.0011280
Arg of perigee:   089.3620 deg
Mean anomaly:     270.8839 deg
Mean motion:   14.12704184 rev/day
Decay rate:       1.45e-06 rev/day^2
Epoch rev:           58673
Checksum:              322

Satellite: NOAA-17
Catalog number: 27453
Epoch time:      12039.70282574
Element set:    0591
Inclination:      098.3527 deg
RA of node:       073.1974 deg
Eccentricity:    0.0011921
Arg of perigee:   171.8439 deg
Mean anomaly:     188.2923 deg
Mean motion:   14.24391387 rev/day
Decay rate:       1.45e-06 rev/day^2
Epoch rev:           50032
Checksum:              311

Satellite: NOAA-18
Catalog number: 28654
Epoch time:      12039.78202172
Element set:    0068
Inclination:      099.0300 deg
RA of node:       356.9074 deg
Eccentricity:    0.0014585
Arg of perigee:   156.2532 deg
Mean anomaly:     203.9314 deg
Mean motion:   14.11603612 rev/day
Decay rate:       4.50e-06 rev/day^2
Epoch rev:           34630
Checksum:              276

